Regional Weather Roundup
Issued by NWS New Orleans/Baton Rouge, LA

Home | Current Version | Previous Version | Text Only | Print | Product List | Glossary On
Versions: 1 2 3 4 5 6 7 8 9 10 11 12 13 14 15 16 17 18 19 20 21 22 23 24 25 26 27 28 29 30 31 32 33 34 35 36 37 38 39 40 41 42 43 44 45 46 47 48 49 50
727
ASUS44 KLIX 241013
RWRLIX
NEW ORLEANS REGIONAL WEATHER ROUNDUP
NATIONAL WEATHER SERVICE NEW ORLEANS LA
400 AM CST FRI NOV 24 2017

NOTE: "FAIR" INDICATES FEW OR NO CLOUDS BELOW 12,000 FEET WITH NO
      SIGNIFICANT WEATHER AND/OR OBSTRUCTIONS TO VISIBILITY.
      SKY/WX - SKY CONDITION AND SIGNIFICANT WEATHER.
      TMP - AIR TEMPERATURE.     DP    - DEWPOINT TEMPERATURE.
      RH  - RELATIVE HUMIDITY.   PRES  - PRESSURE.
      HI  - HEAT INDEX.          WCI   - WIND CHILL INDEX.

*  THESE STATIONS ARE NOT NWS OR FAA STATIONS AND ARE NOT UNDER
   NWS QUALITY CONTROL.

LAZ038-040-048-061>063-065>067-069-241100-
SOUTHEAST LOUISIANA

CITY           SKY/WX    TMP DP  RH WIND       PRES   REMARKS
N.O. INTL ARPT CLEAR     50  39  66 VRB3      30.03S
N.O. LAKEFRONT CLEAR     53  38  56 NE15      30.03S
N.O. DOWNTOWN*   N/A     50  37  61 N6        30.04R
RESERVE*         N/A     42  34  75 CALM      30.04S
SLIDELL        CLEAR     33  30  88 CALM      30.03S
BATON ROUGE    CLEAR     34  32  92 CALM      30.04S
BOOTHVILLE     CLEAR     55  47  74 N3        30.01R
BELLE CHASSE   CLEAR     35  35 100 CALM      30.03R
BOGALUSA*      NOT AVBL
GALLIANO*      SUNNY     37  34  90 N3        30.03S
NEW ROADS*       N/A     34  33  96 CALM      30.05S
GONZALES*        N/A     36  34  91 CALM      30.04S
HAMMOND*       CLEAR     32  32 100 CALM      30.04S
HOUMA*         CLEAR     40  34  78 N3        30.04S
PORT FOURCHON* NOT AVBL

$$

MSZ070-080>082-241100-
SOUTHERN MISSISSIPPI

CITY           SKY/WX    TMP DP  RH WIND       PRES   REMARKS
MCCOMB         CLEAR     35  28  75 NW5       30.02F WCI  31
GULFPORT       CLEAR     37  33  85 NW3       30.02R
BILOXI         CLEAR     40  30  68 N8        30.02R WCI  34
PASCAGOULA     CLEAR     31  28  89 CALM      30.02R

$$

COASTAL OBSERVATIONS
LAKE AND NEARSHORE STATIONS

STATION/POSITION TIME  TEMP    WIND        PRES    WAVE
                       AIR SEA DIR/SP/G            HT/PER
                 (UTC) (F)     (DEG/KT/KT) (MB)    (FT/S)
PASCAGOULA       0948   42     360/  9/ 11 1015.7
WAVELAND YACHT   0948   45 57  360/  9/ 10 1016.6
GRAND ISLE       0948   54 61   40/  6/ 10 1016.2
SOUTHWEST PASS   0948   57 61   20/ 10/ 12 1015.9
NEW CANAL        0948   53 60   30/ 12/ 14 1016.7
SHELL BEACH      0948   53 61   20/ 10/ 12 1016.5

OFFSHORE STATIONS

STATION/POSITION TIME  TEMP    WIND        PRES    WAVE
                       AIR SEA DIR/SP/G            HT/PER
                 (UTC) (F)     (DEG/KT/KT) (MB)    (FT/S)
64 S DAUPHIN ISL 0950   63 77   20/  8/ 10 1014.9

$$





USA.gov is the U.S. government's official web portal to all federal, state and local government web resources and services.